sat.trackr.live / text

‹ back to catalog

ONEWEB-0448

NORAD 51641 · 2022-012V

PAYLOAD ACTIVE UNKNOWN

§ Identity

Operator
Country
UK
Launch date
2022-02-10
Launch site
FRGUI
Launch vehicle
Mass (kg)
RCS (m²)

Purposes: comms

External: N2YO · Heavens-Above · Gunter

§ Orbital elements

Epoch: 2026-05-25T02:46:36.427296Z

Period
109.89 min
Inclination
87.8848°
Eccentricity
0.0001878
Mean motion
13.10370483 rev/d
Perigee alt
1,220.3 km
Apogee alt
1,223.2 km
Semi-major
7,599.9 km
B*
-1.7344e-3
RAAN
40.8740°
Arg perigee
77.5789°
Mean anomaly
282.5548°
Rev number
20,627

§ Raw data

ONEWEB-04481 51641U 22012V   26145.11569939 -.00000593  00000+0 -17344-2 0  99942 51641  87.8848  40.8740 0001878  77.5789 282.5548 13.10370483206273

JSON: /api/v1/satellites/51641 · /tle

For live sub-satellite position, see the globe view (requires WebGL).

§ Visibility from observer

Set your observer location to see the next 7 days of passes ≥ 10°. The values pass through the URL so the page stays shareable.

No JS? Fill the form by hand. The geolocation button needs JavaScript.